Torna al catalogo

CZ-6A DEB

AttivoPO
NORAD 61426·DEBRIS·🇨🇳 China

Lanciato Aug 6, 2024 da Taiyuan Satellite Launch Center

Loading…

Prossimi Passaggi (prossime 24 ore)

TLE

AggiornatoSource: Space-Track

Epoca: Sep 14, 2026, 06:47 UTC

1 61426U 24140YT  26257.28270063  .00004164  00000-0  44305-3 0  9994
2 61426  89.1116 268.2732 0121872 225.8084 133.3080 14.83393670111002

Traccia CZ-6A DEB in tempo reale con AllMySat

Download on the App Store